Location: G�ndlingen
(48.0142°N, 7.6396°E)
Time: 03:04:55
(UTC+00:00)

Cosmos 2084 - Pass Details

Date: 05 July 2020
Orbit: 571 x 611 km, 62.8° (Epoch: 04 August)

Event Time Altitude Azimuth Distance (km) Brightness Sun altitude
Rises 21:39:11 0° 315° (NW) 2,884 8.5 -14.8°
Reaches altitude 10° 21:41:29 10° 311° (NW) 1,974 7.3 -14.9°
Maximum altitude 21:45:52 56° 234° (SW) 727 3.8 -15.3°
Enters shadow 21:48:04 27° 167° (SSE) 1,176 4.4 -15.4°
